Flag for Argentina Weather past 2 weeks in Buenos Aires, Argentina

Now
63 °F

Passing clouds.


Feels Like: 63 °F
Forecast: 54 / 62 °F
Wind: 12 mph from Southeast

Location: Buenos Aires Airport

Current Time: May 27, 2015 at 5:33:12 PM

Latest Report: May 27, 2015 at 5:00 PM


Visibility: N/A

Pressure: 30.18 "Hg

Humidity: 77%

Dew point: 55 °F

Location of Buenos AiresLocation

Historic Weather in Buenos Aires — Graph

°F

Buenos Aires temperature yesterday

Maximum temperature yesterday: 61 °F (at 5:00 AM)
Minimum temperature yesterday: 55 °F (at 2:00 AM)
Average temperature yesterday: 58 °F

Past Weeks' High & Low Weather Summary

 TemperatureHumidityPressure
High77 °F (May 21, 2:00 PM)100% (May 16, 2:00 AM)30.24 "Hg (May 16, 2:00 AM)
Low52 °F (May 25, 4:00 AM)40% (May 25, 1:00 PM)29.71 "Hg (May 23, 5:00 AM)
Average65 °F81%30.06 "Hg
* Reported May 12 4:00 PM — May 27 4:00 PM, Buenos Aires, Weather by CustomWeather, © 2015

Note: Actual official high and low records may vary slightly from our data, if they occured in-between our weather recording intervals... More about our weather records

Advertising

Buenos Aires weather history for previous 24 hours

 ConditionsComfort  
Time TempWeatherWind HumidityBarometerVisibility
4:00 PM
Wed, May 27
64 °FScattered clouds.12 mph73%30.18 "HgN/A
3:00 PM64 °FScattered clouds.9 mph73%30.18 "HgN/A
2:00 PM64 °FScattered clouds.10 mph73%30.21 "HgN/A
1:00 PM64 °FScattered clouds.13 mph73%30.21 "HgN/A
12:00 PM63 °FScattered clouds.14 mph77%30.21 "HgN/A
11:00 AM63 °FScattered clouds.13 mph77%30.24 "HgN/A
10:00 AM59 °FScattered clouds.13 mph82%30.21 "HgN/A
9:00 AM59 °FPartly sunny.10 mph77%30.21 "Hg6 mi
8:00 AM55 °FClear.6 mph82%30.21 "Hg6 mi
7:00 AM57 °FPassing clouds.8 mph77%30.18 "HgN/A
6:00 AM54 °FClear.5 mph82%30.18 "Hg10 mi
5:00 AM54 °FPassing clouds.8 mph88%30.18 "HgN/A
4:00 AM54 °FPassing clouds.6 mph88%30.21 "HgN/A
3:00 AM54 °FPassing clouds.8 mph88%30.18 "HgN/A
2:00 AM54 °FPartly cloudy.8 mph88%30.21 "HgN/A
1:00 AM54 °FOvercast.8 mph88%30.21 "HgN/A
12:00 AM55 °FMostly cloudy.10 mph82%30.24 "HgN/A
11:00 PM
Tue, May 26
55 °FRain. Mostly cloudy.10 mph82%30.21 "Hg6 mi
10:00 PM55 °FRain. Mostly cloudy.8 mph88%30.21 "Hg4 mi
9:00 PM55 °FPassing clouds.3 mph82%30.21 "HgN/A
8:00 PM55 °FLight rain. Mostly cloudy.6 mph88%30.21 "Hg5 mi
7:00 PM55 °FMostly cloudy.10 mph88%30.18 "Hg6 mi
6:00 PM55 °FClear.3 mph94%30.18 "Hg4 mi
5:00 PM55 °FRain. Mostly cloudy.3 mph94%30.21 "Hg2 mi
Weather by CustomWeather, © 2015

See weather overviewHow to use our weather pages